Weather History for Vicksburg, MS

Change the Weather History Date:

Monday, January 6, 2014

  Actual Average Record
Temperature  
Mean Temperature 24 °F 45 °F  
Max Temperature 29 °F 56 °F 75 °F (2008)
Min Temperature 19 °F 35 °F 19 °F (2014)
Degree Days  
Heating Degree Days 41 20  
Month to date heating degree days 155 119  
Since 1 July heating degree days 1280 1056  
Cooling Degree Days 0 0  
Month to date cooling degree days 0 0  
Year to date cooling degree days 0 0  
Moisture  
Dew Point 8 °F    
Average Humidity 51    
Maximum Humidity 69    
Minimum Humidity 33    
Precipitation  
Precipitation T in 0.17 in 1.69 in (1996)
Month to date precipitation 0.50 0.97  
Year to date precipitation 0.50 0.97  
Sea Level Pressure  
Sea Level Pressure 30.56 in    
Wind  
Wind Speed 11 mph (NNW)    
Max Wind Speed 22 mph    
Max Gust Speed 29 mph    
Visibility 10 miles    
Events Snow    
T = Trace of Precipitation, MM = Missing Value Source: NWS Daily Summary

Daily Weather History Graph

Daily Weather History Graph

Search for Another Location

Airport:

Trip Planner

Search our weather history database for the weather conditions in past years. The results will help you decide how hot, cold, wet, or windy it might be!

Date:

Astronomy

Jan. 06, 2014 Rise Set
Actual Time 7:06 AM CST 5:13 PM CST
Civil Twilight 6:39 AM CST 5:40 PM CST
Nautical Twilight 6:08 AM CST 6:11 PM CST
Astronomical Twilight 5:39 AM CST 6:41 PM CST
Moon 10:43 AM CST (1/6) 11:23 PM CST (1/6)
Length of Visible Light 11h 01m
Length of Day
10h 07m
Waxing Crescent, 35% of the Moon is Illuminated
Jan 6
Waxing Crescent
Jan 7
First Quarter
Jan 15
Full
Jan 23
Last Quarter
Jan 30
New

Hourly Weather History & Observations

Time (CST) Temp. Windchill Dew Point Humidity Pressure Visibility Wind Dir Wind Speed Gust Speed Precip Events Conditions
12:53 AM 28.0 °F 15.7 °F 18.0 °F 66% 30.39 in 10.0 mi NNW 17.3 mph 28.8 mph N/A   Overcast
1:11 AM 27.0 °F 14.3 °F 18.0 °F 69% 30.37 in 10.0 mi North 17.3 mph 26.5 mph N/A   Overcast
1:53 AM 26.1 °F 13.6 °F 16.0 °F 66% 30.42 in 10.0 mi North 16.1 mph 27.6 mph N/A   Overcast
2:21 AM 26.1 °F 14.0 °F 16.0 °F 66% 30.42 in 10.0 mi NNW 15.0 mph 25.3 mph N/A   Overcast
2:53 AM 24.1 °F 13.1 °F 14.0 °F 65% 30.46 in 10.0 mi NNW 11.5 mph 21.9 mph 0.00 in Snow Light Snow
3:35 AM 24.1 °F 13.1 °F 15.1 °F 69% 30.46 in 10.0 mi North 11.5 mph 18.4 mph 0.00 in   Mostly Cloudy
3:53 AM 24.1 °F 14.4 °F 14.0 °F 65% 30.48 in 10.0 mi NNW 9.2 mph 19.6 mph 0.00 in   Mostly Cloudy
4:18 AM 23.0 °F 12.4 °F 14.0 °F 68% 30.47 in 10.0 mi NNW 10.4 mph 17.3 mph N/A   Scattered Clouds
4:53 AM 21.9 °F 10.4 °F 10.9 °F 63% 30.50 in 10.0 mi NNW 11.5 mph 17.3 mph N/A   Clear
5:53 AM 21.0 °F 8.1 °F 9.0 °F 60% 30.53 in 10.0 mi NNW 13.8 mph 19.6 mph N/A   Clear
6:53 AM 19.9 °F 6.7 °F 6.1 °F 55% 30.56 in 10.0 mi North 13.8 mph 23.0 mph N/A   Clear
7:53 AM 21.0 °F 9.9 °F 8.1 °F 57% 30.60 in 10.0 mi NNW 10.4 mph - N/A   Clear
8:53 AM 23.0 °F 12.4 °F 7.0 °F 50% 30.64 in 10.0 mi North 10.4 mph 19.6 mph 0.00 in   Clear
9:53 AM 24.1 °F 10.6 °F 1.9 °F 38% 30.66 in 10.0 mi NNW 17.3 mph 26.5 mph 0.00 in   Clear
10:53 AM 25.0 °F 12.6 °F 1.9 °F 37% 30.65 in 10.0 mi NNW 15.0 mph 25.3 mph 0.00 in   Clear
11:53 AM 25.0 °F 13.1 °F 1.0 °F 36% 30.62 in 10.0 mi NNW 13.8 mph 25.3 mph 0.00 in   Clear
12:53 PM 27.0 °F 15.6 °F 3.0 °F 36% 30.60 in 10.0 mi NNW 13.8 mph 20.7 mph 0.00 in   Clear
1:53 PM 27.0 °F 15.2 °F 3.0 °F 36% 30.60 in 10.0 mi NW 15.0 mph 25.3 mph 0.00 in   Clear
2:53 PM 28.0 °F 19.3 °F 3.0 °F 34% 30.61 in 10.0 mi NNW 9.2 mph - 0.00 in   Clear
3:53 PM 27.0 °F 17.3 °F 1.9 °F 34% 30.61 in 10.0 mi NW 10.4 mph - N/A   Clear
4:53 PM 26.1 °F 18.4 °F 3.9 °F 39% 30.60 in 10.0 mi NW 6.9 mph - N/A   Clear
5:53 PM 24.1 °F 18.2 °F 3.9 °F 42% 30.62 in 10.0 mi NNW 4.6 mph - N/A   Clear
6:53 PM 21.9 °F 14.5 °F 5.0 °F 48% 30.63 in 10.0 mi NW 5.8 mph - N/A   Clear
7:53 PM 21.9 °F 14.5 °F 7.0 °F 53% 30.66 in 10.0 mi NW 5.8 mph - N/A   Clear
8:53 PM 23.0 °F 15.8 °F 5.0 °F 46% 30.66 in 10.0 mi NNW 5.8 mph - N/A   Clear
9:53 PM 21.0 °F 14.6 °F 3.9 °F 48% 30.66 in 10.0 mi NW 4.6 mph - N/A   Clear
10:53 PM 21.0 °F 14.6 °F 3.9 °F 48% 30.66 in 10.0 mi NNW 4.6 mph - N/A   Clear
11:53 PM 21.0 °F 13.4 °F 3.0 °F 46% 30.66 in 10.0 mi NNW 5.8 mph - N/A   Clear